Hourly Weather Roundup
Issued by NWS Central Illinois

Home | Current Version | Previous Version | Text Only | Print | Product List | Glossary On
Versions: 1 2 3 4 5 6 7 8 9 10 11 12 13 14 15 16 17 18 19 20 21 22 23 24 25 26 27 28 29 30 31 32 33 34 35 36 37 38 39 40 41 42 43 44 45 46 47 48 49 50
000
NZUS43 KILX 030010
HWRILX

AREA WEATHER ROUNDUP
NATIONAL WEATHER SERVICE, LINCOLN IL
700 PM CDT WED SEP 02 2015


CITY           SKY/WX    TMP DP  RH WIND       PRES   REMARKS
BLOOMINGTON    MOCLDY    86  68  54 SW6       29.99S HX  89
6HR MIN TEMP:  86; 6HR MAX TEMP:  92;

CHAMPAIGN      PTCLDY    82  69  64 S5        30.00R HX  85
6HR MIN TEMP:  82; 6HR MAX TEMP:  91;

DANVILLE       PTCLDY    79  71  77 S5        29.98R HX  82
6HR MIN TEMP:  79; 6HR MAX TEMP:  89;

DECATUR        PTCLDY    86  68  54 S7        29.99S HX  89
6HR MIN TEMP:  86; 6HR MAX TEMP:  94;

EFFINGHAM      CLEAR     81  67  62 CALM      30.01S HX  84
FLORA          CLEAR     83  66  55 W3        30.00S HX  85
6HR MIN TEMP:  83; 6HR MAX TEMP:  91;

GALESBURG      MOCLDY    81  69  68 CALM      29.96S HX  84
JACKSONVILLE   PTCLDY    85  68  57 S6        29.97F HX  88
6HR MIN TEMP:  85; 6HR MAX TEMP:  94;

LACON          CLOUDY    83  69  64 CALM      29.95S HX  86
6HR MIN TEMP:  83; 6HR MAX TEMP:  89;

LAWRENCEVILLE  CLEAR     84  70  62 SW3       29.99F HX  88
6HR MIN TEMP:  84; 6HR MAX TEMP:  93;

LITCHFIELD     MOCLDY    83  69  63 SE3       29.99F HX  86
$$


CITY           SKY/WX    TMP DP  RH WIND       PRES   REMARKS
LINCOLN        PTCLDY    87  64  46 SW3       29.96S HX  88
6HR MIN TEMP:  87; 6HR MAX TEMP:  93;

MACOMB         CLEAR     84  67  56 S5        29.98S HX  87
MATTOON        CLEAR     83  68  60 S3        29.99F HX  86
6HR MIN TEMP:  83; 6HR MAX TEMP:  90;

MT CARMEL AP   CLEAR     82  68  61 CALM      29.99F HX  85
OLNEY-NOBLE AP MOCLDY    82  70  65 CALM      30.00S HX  86
PARIS          PTCLDY    81  71  71 S3        30.01S HX  85
6HR MIN TEMP:  81; 6HR MAX TEMP:  90;

PEORIA         MOCLDY    87  68  52 SW3       29.96S HX  90
6HR MIN TEMP:  87; 6HR MAX TEMP:  95;

PONTIAC        MOCLDY    84  74  73 CALM      29.98S HX  91
RANTOUL        MOCLDY    82  69  65 S8        29.99S HX  85
ROBINSON       PTCLDY    83  72  68 CALM      30.01S HX  88
6HR MIN TEMP:  83; 6HR MAX TEMP:  90;

SPRINGFIELD    PTCLDY    87  67  51 SW6       29.98S HX  90
6HR MIN TEMP:  87; 6HR MAX TEMP:  94;

TAYLORVILLE    MOCLDY    82  70  65 S3        29.99S HX  86
$$

...REGIONAL REPORTS...


CITY           SKY/WX    TMP DP  RH WIND       PRES   REMARKS
CHICAGO O`HARE MOCLDY    85  68  56 VRB7      29.96R HX  88
KANKAKEE       MOCLDY    82  72  71 CALM      29.97S HX  86
MOLINE         CLOUDY    83  69  62 S5        29.94S HX  86
MOUNT STERLING PTCLDY    83  71  66 S5        29.97F HX  88
MOUNT VERNON   CLEAR     82  68  61 CALM      30.00F HX  85
PITTSFIELD     PTCLDY    85  69  57 S6        29.99S HX  89
QUINCY         CLEAR     84  68  58 S7        29.97S HX  87
ROCKFORD       MOCLDY    81  70  69 S3        29.96F HX  84
$$


CITY           SKY/WX    TMP DP  RH WIND       PRES   REMARKS
BURLINGTON     CLEAR     83  68  60 S9        29.94F HX  86
CEDAR RAPIDS   CLEAR     79  71  76 S8        29.93S HX  82
DES MOINES     PTCLDY    83  68  60 S7        29.89R HX  86
KIRKSVILLE     CLEAR     80  69  69 S7        29.96S HX  83
OTTUMWA        CLEAR     79  71  76 S7        29.91S HX  82
ST LOUIS       MOCLDY    89  66  46 SW6       29.99S HX  91
$$


CITY           SKY/WX    TMP DP  RH WIND       PRES   REMARKS
TERRE HAUTE    PTCLDY    83  68  60 S3        30.00F HX  86
EVANSVILLE     CLEAR     85  67  54 CALM      30.00S HX  87
INDIANAPOLIS   PTCLDY    82  68  62 SW7       30.00S HX  85
LAFAYETTE      PTCLDY    83  69  62 SW3       29.98F HX  86
MADISON        PTCLDY    82  68  62 S9        29.92F HX  85
MILWAUKEE      MOCLDY    85  68  56 SW8       29.94S HX  88
$$




USA.gov is the U.S. government's official web portal to all federal, state and local government web resources and services.